User: anonymous   Login
Location: Clyde
(45.1830°S, 169.3170°E)
Time: 20:59:18
(UTC+12:00)
Language:

Cosmos 2333 Rocket - Orbit

View from above orbital plane
View from above orbital plane
View from above satellite
View from above satellite

Ground track
Ground track

The orbit data is extracted from the following two-line orbital elements,

1 24298U 96051B   21216.81176482 -.00000189  00000-0 -75960-4 0  9996
2 24298  70.8275 118.9440 0013440 102.5597 257.7027 14.12429020284722
Epoch (UTC): 04 August 2021 19:28:56
Eccentricity: 0.0013440
inclination: 70.8275°
perigee height: 841 km
apogee height: 861 km
right ascension of ascending node: 118.9440°
argument of perigee: 102.5597°
revolutions per day: 14.12429020
mean anomaly at epoch: 257.7027°
orbit number at epoch: 28472

The dashed part of the orbit path shows where the satellite is in the earth's shadow,  

DLR